FDX9901 KEWR-LFPG

Flight info

Callsign FDX9901
Flight time N/A
Altitude 41000
Route MERIT DCT HFD DCT PUT DCT 46N060W DCT JOOPY/M084F410 DCT 49N050W 51N040W 52N030W 53N020W DCT MALOT/N0485F410 DCT GISTI DCT KER DCT GOTEM DCT NORLA DCT PEWBI DCT OXLOW DCT SFD UM605 BIBAX
Aircraft B77L/H-SDE1E2E3FGHIJ2J3J4J5M1RWXY/LB1D1

Departure

Time N/A
Airport Newark Liberty International Airport (KEWR)

Arrival

Time 2026-05-03 20:44
Airport Charles de Gaulle International Airport (LFPG)
Time Latitude Longitude Altitude Speed Heading
2026-05-03 20:15 49.95176 1.08902 22304 ft 394 kts 159°
2026-05-03 20:15 49.92696 1.10708 21941 ft 393 kts 159°
2026-05-03 20:15 49.90229 1.12527 21602 ft 392 kts 158°
2026-05-03 20:15 49.87772 1.14353 21239 ft 391 kts 158°
2026-05-03 20:16 49.85325 1.16178 20885 ft 390 kts 158°
2026-05-03 20:16 49.82892 1.17996 20540 ft 388 kts 158°
2026-05-03 20:16 49.80494 1.19788 20196 ft 386 kts 158°
2026-05-03 20:16 49.78046 1.21615 19842 ft 385 kts 158°
2026-05-03 20:17 49.75671 1.23386 19505 ft 383 kts 158°
2026-05-03 20:17 49.73241 1.25195 19162 ft 382 kts 158°
2026-05-03 20:17 49.70887 1.26945 18827 ft 380 kts 158°
2026-05-03 20:17 49.68507 1.28714 18493 ft 379 kts 158°
2026-05-03 20:18 49.66136 1.30472 18149 ft 377 kts 158°
2026-05-03 20:18 49.63776 1.32222 17768 ft 376 kts 158°
2026-05-03 20:18 49.61426 1.33962 17413 ft 374 kts 158°
2026-05-03 20:18 49.59087 1.35692 17078 ft 371 kts 158°
2026-05-03 20:19 49.56766 1.37407 16739 ft 369 kts 158°
2026-05-03 20:19 49.54451 1.39115 16399 ft 368 kts 158°
2026-05-03 20:19 49.52148 1.40813 16067 ft 366 kts 158°
2026-05-03 20:19 49.49852 1.42503 15758 ft 365 kts 158°
2026-05-03 20:20 49.47562 1.44189 15429 ft 364 kts 158°
2026-05-03 20:20 49.46051 1.45299 15216 ft 364 kts 157°
2026-05-03 20:20 49.43770 1.46973 14889 ft 363 kts 158°
2026-05-03 20:20 49.41490 1.48602 14563 ft 361 kts 159°
2026-05-03 20:21 49.39187 1.50117 14238 ft 358 kts 161°
2026-05-03 20:21 49.36102 1.51811 13817 ft 353 kts 166°
2026-05-03 20:21 49.33737 1.52780 13487 ft 351 kts 170°
2026-05-03 20:21 49.31340 1.53442 13141 ft 348 kts 175°
2026-05-03 20:22 49.29715 1.53693 12898 ft 346 kts 178°
2026-05-03 20:22 49.27306 1.53749 12585 ft 346 kts 184°
2026-05-03 20:22 49.24911 1.53401 12278 ft 347 kts 190°
2026-05-03 20:22 49.22587 1.52821 12061 ft 340 kts 187°
2026-05-03 20:23 49.20227 1.52996 11763 ft 344 kts 171°
2026-05-03 20:23 49.17943 1.54283 11503 ft 349 kts 153°
2026-05-03 20:23 49.16033 1.56505 11314 ft 353 kts 137°
2026-05-03 20:23 49.14576 1.59596 11132 ft 357 kts 120°
2026-05-03 20:24 49.13798 1.63138 11018 ft 360 kts 102°
2026-05-03 20:24 49.13578 1.66960 10961 ft 362 kts 94°
2026-05-03 20:24 49.13539 1.70805 10943 ft 363 kts 92°
2026-05-03 20:24 49.13540 1.74655 10932 ft 363 kts 92°
2026-05-03 20:25 49.13548 1.78519 10940 ft 364 kts 92°
2026-05-03 20:25 49.13558 1.82381 10934 ft 364 kts 92°
2026-05-03 20:25 49.13572 1.86250 10934 ft 364 kts 91°
2026-05-03 20:25 49.13586 1.90119 10930 ft 364 kts 91°
2026-05-03 20:26 49.13601 1.93987 10942 ft 364 kts 91°
2026-05-03 20:26 49.13618 1.97855 10943 ft 364 kts 91°
2026-05-03 20:26 49.13635 2.01722 10941 ft 364 kts 91°
2026-05-03 20:26 49.13651 2.05591 10940 ft 364 kts 91°
2026-05-03 20:27 49.13669 2.09365 10918 ft 346 kts 91°
2026-05-03 20:27 49.13690 2.12935 10920 ft 325 kts 91°
2026-05-03 20:27 49.13715 2.16286 10918 ft 306 kts 92°
2026-05-03 20:27 49.13742 2.19466 10929 ft 295 kts 92°
2026-05-03 20:28 49.13770 2.22593 10929 ft 295 kts 92°
2026-05-03 20:28 49.13798 2.25720 10939 ft 295 kts 92°
2026-05-03 20:28 49.13826 2.28857 10945 ft 295 kts 92°
2026-05-03 20:28 49.13854 2.31980 10800 ft 294 kts 92°
2026-05-03 20:29 49.13880 2.35077 10494 ft 291 kts 91°
2026-05-03 20:29 49.13904 2.38154 10070 ft 289 kts 91°
2026-05-03 20:29 49.13924 2.41227 9610 ft 290 kts 91°
2026-05-03 20:29 49.13941 2.44299 9213 ft 288 kts 92°
2026-05-03 20:30 49.13958 2.47326 9001 ft 282 kts 92°
2026-05-03 20:30 49.13973 2.50256 8884 ft 280 kts 92°
2026-05-03 20:30 49.13987 2.53305 8386 ft 290 kts 92°
2026-05-03 20:30 49.14001 2.56311 8160 ft 275 kts 92°
2026-05-03 20:31 49.14017 2.59217 8044 ft 278 kts 92°
2026-05-03 20:31 49.14030 2.62203 7935 ft 283 kts 92°
2026-05-03 20:31 49.14043 2.65209 7819 ft 282 kts 92°
2026-05-03 20:31 49.14056 2.68191 7541 ft 278 kts 92°
2026-05-03 20:32 49.14068 2.71128 7147 ft 276 kts 92°
2026-05-03 20:32 49.14081 2.74046 6707 ft 275 kts 92°
2026-05-03 20:32 49.14093 2.76960 6285 ft 273 kts 92°
2026-05-03 20:32 49.14105 2.79856 5858 ft 272 kts 92°
2026-05-03 20:33 49.14116 2.82731 5426 ft 270 kts 92°
2026-05-03 20:33 49.14126 2.85586 5041 ft 269 kts 92°
2026-05-03 20:33 49.14134 2.88440 4937 ft 269 kts 92°
2026-05-03 20:33 49.14141 2.91283 4940 ft 270 kts 92°
2026-05-03 20:34 49.14147 2.94136 4934 ft 267 kts 92°
2026-05-03 20:34 49.14157 2.96912 4921 ft 256 kts 92°
2026-05-03 20:34 49.14169 2.99567 4919 ft 247 kts 92°
2026-05-03 20:34 49.14181 3.02188 4929 ft 247 kts 92°
2026-05-03 20:35 49.14195 3.04808 4933 ft 247 kts 92°
2026-05-03 20:35 49.14041 3.07365 4923 ft 238 kts 112°
2026-05-03 20:35 49.13151 3.09384 4935 ft 226 kts 145°
2026-05-03 20:35 49.11757 3.10288 4973 ft 215 kts 178°
2026-05-03 20:36 49.10326 3.09854 4938 ft 211 kts 210°
2026-05-03 20:36 49.09314 3.08279 4941 ft 209 kts 237°
2026-05-03 20:36 49.08608 3.06325 4937 ft 211 kts 241°
2026-05-03 20:36 49.07932 3.04329 4942 ft 212 kts 242°
2026-05-03 20:37 49.07259 3.02324 4942 ft 213 kts 242°
2026-05-03 20:37 49.06585 3.00308 4944 ft 214 kts 242°
2026-05-03 20:37 49.05910 2.98290 4946 ft 214 kts 242°
2026-05-03 20:37 49.05236 2.96269 4946 ft 214 kts 242°
2026-05-03 20:38 49.04747 2.94167 4948 ft 211 kts 258°
2026-05-03 20:38 49.04570 2.91942 4956 ft 213 kts 263°
2026-05-03 20:38 49.04448 2.89642 4690 ft 221 kts 263°
2026-05-03 20:38 49.04330 2.87325 4402 ft 216 kts 263°
2026-05-03 20:39 49.04213 2.85086 4122 ft 210 kts 263°
2026-05-03 20:39 49.04096 2.82874 3851 ft 207 kts 263°
2026-05-03 20:39 49.03981 2.80726 3578 ft 199 kts 263°
2026-05-03 20:39 49.03875 2.78735 3336 ft 180 kts 263°
2026-05-03 20:40 49.03780 2.76934 3119 ft 162 kts 263°
2026-05-03 20:40 49.03693 2.75310 2892 ft 145 kts 263°
2026-05-03 20:40 49.03615 2.73836 2740 ft 137 kts 262°
2026-05-03 20:40 49.03535 2.72378 2545 ft 137 kts 262°
2026-05-03 20:41 49.03459 2.70964 2365 ft 134 kts 262°
2026-05-03 20:41 49.03384 2.69554 2184 ft 134 kts 263°
2026-05-03 20:41 49.03307 2.68120 2006 ft 134 kts 263°
2026-05-03 20:41 49.03233 2.66719 1829 ft 134 kts 262°
2026-05-03 20:42 49.03156 2.65301 1649 ft 134 kts 263°
2026-05-03 20:42 49.03081 2.63876 1467 ft 135 kts 263°
2026-05-03 20:42 49.03004 2.62444 1281 ft 137 kts 263°
2026-05-03 20:42 49.02926 2.60982 1085 ft 139 kts 263°
2026-05-03 20:43 49.02847 2.59504 896 ft 140 kts 263°
2026-05-03 20:43 49.02769 2.58007 669 ft 141 kts 263°
2026-05-03 20:43 49.02689 2.56519 474 ft 141 kts 263°
2026-05-03 20:43 49.02619 2.55045 386 ft 134 kts 265°
2026-05-03 20:44 49.02547 2.53916 380 ft 55 kts 265°
2026-05-03 20:44 49.02445 2.53337 373 ft 50 kts 239°
2026-05-03 20:44 49.02329 2.53083 370 ft 20 kts 229°
2026-05-03 20:44 49.02238 2.53006 370 ft 11 kts 188°
2026-05-03 20:45 49.02158 2.53009 380 ft 16 kts 176°
2026-05-03 20:45 49.01989 2.53028 362 ft 30 kts 175°
2026-05-03 20:45 49.01933 2.53036 361 ft 2 kts 175°
2026-05-03 20:45 49.01902 2.53040 366 ft 6 kts 174°
2026-05-03 20:46 49.01857 2.53080 365 ft 9 kts 126°
2026-05-03 20:46 49.01848 2.53182 362 ft 11 kts 86°
2026-05-03 20:46 49.01853 2.53313 360 ft 14 kts 87°
2026-05-03 20:46 49.01863 2.53469 365 ft 16 kts 85°
2026-05-03 20:47 49.01811 2.53593 366 ft 15 kts 130°
2026-05-03 20:47 49.01790 2.53748 365 ft 16 kts 86°
2026-05-03 20:47 49.01801 2.53929 363 ft 18 kts 85°
2026-05-03 20:47 49.01812 2.54130 364 ft 20 kts 85°
2026-05-03 20:48 49.01823 2.54352 359 ft 22 kts 85°
2026-05-03 20:48 49.01835 2.54583 360 ft 22 kts 85°
2026-05-03 20:48 49.01844 2.54770 366 ft 17 kts 83°
2026-05-03 20:48 49.01857 2.54956 360 ft 19 kts 85°
2026-05-03 20:49 49.01819 2.55120 368 ft 17 kts 155°
2026-05-03 20:49 49.01706 2.55145 361 ft 17 kts 175°
2026-05-03 20:49 49.01580 2.55162 365 ft 19 kts 175°
2026-05-03 20:49 49.01440 2.55185 367 ft 21 kts 168°
2026-05-03 20:50 49.01307 2.55216 365 ft 13 kts 198°
2026-05-03 20:50 49.01215 2.55169 368 ft 15 kts 199°
2026-05-03 20:50 49.01109 2.55184 361 ft 16 kts 165°
2026-05-03 20:50 49.00993 2.55234 366 ft 18 kts 164°
2026-05-03 20:51 49.00864 2.55293 367 ft 20 kts 163°
2026-05-03 20:51 49.00724 2.55353 365 ft 22 kts 164°
2026-05-03 20:51 49.00574 2.55415 363 ft 23 kts 165°
2026-05-03 20:51 49.00442 2.55474 362 ft 17 kts 164°
2026-05-03 20:52 49.00319 2.55528 365 ft 19 kts 164°
2026-05-03 20:52 49.00185 2.55587 365 ft 21 kts 164°
2026-05-03 20:52 49.00062 2.55609 367 ft 13 kts 206°
2026-05-03 20:52 48.99999 2.55502 365 ft 14 kts 241°
2026-05-03 20:53 48.99977 2.55345 366 ft 16 kts 264°
2026-05-03 20:53 48.99966 2.55160 358 ft 19 kts 264°
2026-05-03 20:53 48.99956 2.54951 358 ft 21 kts 266°
2026-05-03 20:53 48.99948 2.54721 364 ft 23 kts 266°
2026-05-03 20:54 48.99933 2.54477 358 ft 21 kts 264°
2026-05-03 20:54 49.00008 2.54393 363 ft 0 kts 357°